GFSSGP_850_spd_336.txt.gz
Wind_Speed
11 12 3 4 7 5 5 6 3 8 8 4 9 0 10 10 8 4 16 12 16 16 15 15 13 13 13 14 15 16 16 17 16 16 16 16 16 17 16 15 14 12 12 12 12 12 12 12 12
10 9 4 6 6 6 8 9 8 5 9 10 9 4 4 7 7 12 18 13 17 15 15 14 15 14 14 15 16 17 17 16 15 15 15 15 14 14 13 11 10 10 10 10 10 9 10 10 11
9 6 7 4 3 1 3 10 8 12 8 8 5 5 5 5 11 13 12 19 17 15 13 16 16 15 15 16 17 17 17 15 13 12 13 13 11 10 9 7 7 7 7 6 7 6 7 7 8
4 4 6 9 4 3 5 5 11 12 9 6 7 12 12 10 6 9 19 19 16 17 13 17 17 16 17 17 17 18 16 14 13 12 11 11 10 8 6 5 4 4 4 4 4 4 5 6 6
4 7 9 8 4 1 3 6 9 7 7 10 9 10 9 7 12 19 19 17 16 16 15 16 18 18 18 18 17 17 15 13 13 12 11 9 9 7 5 4 3 3 2 2 2 2 3 4 6
11 6 9 9 5 3 4 10 8 7 8 9 12 14 6 10 16 18 17 16 14 15 16 15 18 19 19 18 17 17 15 14 12 11 11 9 8 6 6 4 3 2 0 1 2 4 4 5 5
15 8 14 5 6 5 3 12 11 9 10 5 11 7 8 13 17 17 18 17 15 13 14 16 15 18 18 18 17 16 14 13 13 11 10 9 8 6 5 5 3 1 1 3 4 5 5 5 5
13 8 14 11 8 2 6 16 11 10 7 9 7 7 13 21 20 17 15 16 16 13 13 13 16 15 15 16 17 16 15 14 13 12 11 9 6 6 4 3 2 2 3 4 4 5 5 5 5
10 10 13 13 10 7 13 12 9 6 13 7 4 10 21 25 22 19 16 14 13 15 15 16 16 18 15 13 14 15 14 14 12 10 9 8 3 4 1 5 4 4 4 5 5 5 5 5 6
14 13 18 11 6 3 14 14 15 12 15 11 16 20 25 24 23 20 18 15 13 12 11 10 10 12 11 9 9 10 9 6 7 7 10 5 8 7 6 7 7 7 7 6 7 7 7 7 4
19 17 16 9 8 6 8 12 13 12 13 14 19 24 24 23 21 19 17 15 13 13 12 12 13 14 11 9 9 8 7 7 6 9 8 8 6 6 5 5 5 5 9 5 6 7 6 7 7
14 19 14 12 8 9 10 11 10 13 5 10 19 23 23 22 20 19 17 15 13 12 11 10 11 13 12 10 8 9 8 8 6 9 9 8 4 7 8 6 7 7 8 9 8 7 11 9 10
16 12 17 13 12 10 7 12 8 8 11 18 21 21 22 20 19 17 16 15 14 11 11 10 11 12 12 10 9 9 10 8 10 11 11 9 6 10 9 11 11 12 12 11 11 11 13 11 9
10 15 10 10 11 6 13 7 13 10 15 18 19 21 20 19 17 17 15 14 13 13 12 11 10 13 11 13 12 11 11 11 11 12 13 13 14 14 14 13 13 14 14 15 15 16 16 14 11
6 13 9 11 10 6 13 11 13 17 17 18 17 18 18 18 17 15 15 14 13 13 16 16 14 17 16 14 13 12 11 12 12 12 12 12 12 12 11 12 13 14 14 15 16 17 18 15 13
13 14 14 15 11 6 12 18 14 18 19 18 18 17 17 21 18 15 14 16 17 16 18 15 13 15 16 16 14 14 13 12 11 11 11 11 11 11 10 12 14 14 15 16 18 20 21 17 18
11 13 19 13 15 8 15 18 20 19 18 19 19 19 18 18 19 18 16 17 16 15 15 15 14 14 15 15 14 13 12 12 11 12 12 12 11 11 11 13 15 15 17 19 19 16 16 14 13
12 16 9 17 12 13 16 18 12 16 18 19 21 21 20 20 19 17 15 13 15 18 17 15 15 15 15 14 14 13 13 13 13 13 13 13 13 12 13 13 15 17 15 13 11 10 12 12 11
7 12 14 11 11 15 19 19 14 13 17 20 22 22 23 22 19 17 15 16 15 15 17 17 17 18 18 16 12 11 13 15 14 13 11 12 13 13 13 13 8 7 6 5 4 3 5 7 8
12 13 15 11 8 12 17 23 22 18 20 22 22 24 24 23 21 19 18 16 15 15 15 15 16 17 16 14 14 12 13 12 12 12 13 11 11 9 8 6 4 2 2 3 4 4 5 7 9
14 15 13 15 7 14 15 19 22 19 19 22 23 24 25 28 26 24 21 18 16 15 16 16 15 15 16 17 17 16 14 12 11 10 9 8 7 5 4 3 2 3 4 4 5 5 6 7 9
15 14 16 16 14 16 19 17 21 21 20 20 26 27 29 30 27 26 23 20 16 14 13 14 15 15 15 15 12 12 8 7 7 7 7 5 4 3 4 3 3 3 2 4 7 9 10 10 10
15 15 14 15 16 17 18 12 16 19 20 22 26 31 33 31 29 27 24 20 18 16 13 13 13 13 14 15 11 9 9 9 8 7 6 4 3 4 4 4 4 6 6 7 8 9 10 11 11
11 9 13 12 14 17 20 18 16 18 19 18 23 32 31 30 28 25 23 22 20 17 15 14 13 13 12 12 12 12 11 10 8 7 6 6 5 5 5 6 7 7 8 7 8 10 11 12 12
15 15 13 15 15 16 19 20 16 17 12 12 12 12 26 28 28 27 26 24 22 20 17 15 14 14 12 11 10 10 10 8 6 6 6 7 5 5 5 7 7 7 7 8 9 10 12 13 13
14 14 15 23 17 18 18 18 15 1 4 7 11 12 19 27 28 28 26 24 22 20 18 16 15 14 12 11 10 9 9 7 6 7 7 6 6 6 6 7 8 8 8 8 9 9 10 12 11
14 9 11 16 20 18 20 21 9 7 5 2 4 10 19 24 27 27 25 22 21 20 18 17 16 14 13 12 10 9 8 8 7 6 7 7 8 6 6 6 7 8 8 8 8 8 10 10 10
14 13 12 11 19 23 19 19 11 8 4 5 3 9 16 21 24 25 24 22 20 18 18 16 15 14 13 12 10 10 8 7 4 4 7 8 8 9 6 5 6 7 7 8 8 7 9 10 10
11 13 16 16 13 17 18 12 9 9 7 6 6 9 16 22 23 24 22 21 19 18 17 16 14 12 11 10 9 9 8 5 3 2 6 7 7 7 5 5 6 6 7 8 8 9 9 10 10
16 21 22 15 18 17 15 14 7 6 5 3 9 13 18 23 24 23 21 20 19 18 17 15 12 11 9 9 8 7 6 4 4 2 3 5 6 6 4 6 7 6 7 8 9 8 8 10 10

GFSSGP_850_spd_339.txt.gz
Wind_Speed
13 14 8 11 8 7 9 7 11 11 9 10 10 9 14 17 13 8 17 15 17 16 15 15 15 14 13 13 14 15 16 15 15 16 17 16 16 17 16 14 13 13 13 13 13 12 12 12 12
6 10 12 13 13 7 5 9 11 10 14 9 10 4 11 13 10 20 18 18 17 16 15 14 16 15 14 14 15 17 16 16 15 16 16 15 14 14 12 11 10 11 10 10 10 10 10 10 10
10 11 15 11 11 3 17 12 11 11 10 9 6 9 10 9 14 17 17 20 16 17 15 15 17 16 15 15 16 17 16 15 15 14 14 13 12 10 9 8 7 7 7 7 7 7 7 7 8
8 15 14 11 16 14 6 13 10 14 11 6 8 12 10 10 10 11 20 19 17 15 15 18 18 17 16 16 17 16 14 14 13 13 12 11 10 8 6 5 4 5 4 4 4 4 5 6 8
11 14 12 18 12 1 4 4 9 13 8 10 9 14 10 6 12 20 21 18 18 15 15 17 18 17 17 17 17 16 13 13 12 11 11 9 8 6 4 3 2 2 2 3 3 4 4 5 7
18 19 14 16 10 7 1 4 4 6 8 6 8 15 7 11 18 20 19 18 18 17 15 15 18 18 18 17 17 15 13 12 12 11 9 8 6 4 3 2 1 2 3 4 5 6 5 5 6
18 14 17 22 7 6 3 7 10 11 13 6 13 10 12 16 19 19 19 17 16 18 15 15 16 18 18 18 17 15 13 12 11 10 9 7 5 3 2 0 1 3 5 5 6 6 6 6 6
21 12 22 20 11 3 6 10 10 7 14 7 3 8 14 24 23 20 19 18 15 15 14 14 14 13 13 14 16 16 14 12 11 9 7 5 3 0 1 2 3 3 4 5 5 5 6 6 6
17 14 16 22 15 2 11 14 8 5 11 8 5 9 24 27 24 21 22 20 17 15 15 14 13 13 12 10 13 14 13 11 9 7 5 5 3 3 5 6 4 5 5 5 5 5 6 6 7
18 14 22 20 13 3 15 11 13 8 13 9 12 18 27 26 25 21 22 19 17 17 15 14 14 13 12 13 9 9 7 6 3 4 7 4 6 6 6 7 9 9 7 8 8 7 7 7 6
23 20 19 22 12 7 6 13 16 14 11 13 18 23 26 25 22 21 19 17 17 16 14 13 13 13 11 10 9 8 9 8 9 7 7 5 5 5 5 6 8 8 10 6 10 11 7 6 6
20 23 28 25 8 6 15 9 16 15 2 22 20 23 24 23 22 20 19 17 17 17 16 16 15 14 14 11 11 10 10 9 8 7 7 5 4 6 6 6 5 6 6 7 6 6 8 7 8
19 19 21 26 17 9 14 15 13 15 6 17 22 23 22 21 20 18 18 17 16 16 15 14 13 12 13 13 10 10 11 9 10 8 8 6 5 8 5 7 4 5 6 6 6 7 8 8 8
17 19 26 15 20 19 14 16 11 13 14 18 22 23 22 21 20 19 18 17 16 15 15 15 14 13 11 11 11 11 10 15 9 7 10 11 6 12 5 5 5 5 6 7 7 9 9 9 9
18 15 19 15 16 19 13 19 14 21 20 19 20 20 21 20 19 19 18 17 17 15 15 13 14 13 14 14 11 9 8 9 8 9 12 13 13 12 11 5 5 9 10 11 11 10 10 10 10
15 17 17 21 20 19 10 20 20 21 24 23 21 20 20 20 19 18 18 17 16 15 13 13 11 12 13 12 11 8 9 8 7 7 9 11 12 12 9 7 12 12 12 12 14 13 11 10 10
14 15 21 20 22 16 17 19 23 29 27 26 25 22 22 22 20 20 18 18 16 15 14 12 12 11 11 12 11 10 11 7 6 6 8 12 12 11 11 13 16 15 14 14 16 14 11 8 9
14 18 16 17 17 17 19 20 17 23 25 23 24 23 23 24 25 22 19 18 16 15 14 16 12 16 16 12 9 8 7 6 5 7 13 11 12 12 10 13 15 14 18 15 13 10 8 7 8
21 15 12 15 11 20 19 19 22 24 25 24 24 24 24 25 23 22 21 18 18 17 17 18 17 16 12 11 9 8 8 7 7 11 11 12 12 12 12 8 10 10 10 9 6 3 5 5 3
16 15 17 16 15 13 14 20 20 22 23 26 25 24 25 25 26 25 23 22 20 19 19 17 15 19 16 11 12 11 11 7 11 12 11 12 12 11 13 9 7 6 2 4 3 3 4 5 5
16 17 17 18 15 18 16 19 22 23 31 22 23 26 26 27 29 27 26 24 21 19 18 18 16 16 14 13 18 18 13 9 6 7 8 11 9 8 7 8 5 6 5 4 3 5 7 6 7
17 17 18 18 17 17 19 17 22 23 23 24 26 26 27 29 29 27 26 24 21 19 17 16 16 15 15 17 10 11 7 6 8 5 6 5 6 7 6 5 5 4 3 4 3 5 8 10 7
17 17 18 17 18 21 25 15 18 19 25 24 26 32 33 33 31 29 26 23 20 18 16 16 16 15 14 13 12 11 9 11 7 6 6 6 5 5 4 4 4 5 4 6 6 6 8 8 8
12 14 19 17 15 18 21 21 20 19 20 21 21 30 32 33 32 28 25 21 19 17 16 15 15 15 13 12 12 11 12 10 9 8 6 6 5 4 5 5 6 7 7 6 6 8 8 9 7
19 16 13 17 16 17 21 22 21 22 19 21 12 25 30 36 35 30 25 22 20 18 16 15 15 14 13 12 11 11 11 10 10 8 7 8 5 4 4 6 7 5 6 7 7 8 8 8 8
21 15 12 23 19 19 20 21 22 21 15 6 9 4 4 18 28 28 23 21 18 18 16 14 14 14 13 13 12 11 10 8 7 8 8 6 6 4 5 6 7 7 6 6 8 6 7 7 7
18 17 20 18 19 20 22 26 25 10 11 5 2 7 11 19 25 25 22 20 19 18 16 15 14 14 13 13 12 11 10 9 11 8 8 8 8 5 5 5 6 6 6 7 7 5 6 7 6
22 19 20 15 21 24 20 22 3 7 1 7 4 4 10 17 22 24 23 21 19 17 15 14 14 13 13 11 11 9 9 8 7 8 10 9 9 7 5 5 4 5 6 6 7 4 5 6 5
19 16 16 17 13 16 14 11 7 3 9 3 4 9 13 16 20 22 23 21 19 17 16 14 14 13 12 11 10 9 8 7 7 7 8 8 9 7 6 4 3 4 4 5 5 6 5 5 5
18 20 11 6 6 9 12 15 12 11 7 3 7 11 19 19 20 21 21 22 20 18 16 15 14 14 15 15 13 9 7 6 5 7 9 9 9 7 7 6 5 4 4 5 4 6 4 4 4

GFSSGP_850_spd_342.txt.gz
Wind_Speed
15 10 13 12 7 2 6 4 24 18 15 17 19 23 21 21 9 11 20 17 20 19 19 18 19 19 17 16 17 17 17 16 17 17 19 19 19 18 16 16 15 14 14 14 13 13 14 14 14
15 13 18 20 12 5 1 19 23 11 17 20 12 30 25 17 16 23 24 20 21 20 19 20 21 20 18 18 18 18 17 16 16 17 18 17 16 15 14 13 13 12 12 11 11 11 11 12 12
16 12 16 9 14 4 1 18 20 38 15 18 20 20 10 16 21 22 24 23 21 19 18 19 21 20 19 19 19 18 17 15 16 16 15 15 13 12 10 10 10 9 9 9 9 9 10 10 10
11 15 18 11 19 9 14 9 34 19 8 11 24 16 19 16 21 25 24 21 22 20 18 20 20 20 19 19 19 17 16 14 14 14 13 12 11 9 7 7 7 7 7 7 7 7 7 8 9
14 16 13 18 25 19 23 48 51 19 12 12 25 16 14 9 21 25 24 21 22 19 19 21 20 20 19 18 18 16 14 13 13 12 10 9 7 6 5 6 6 6 6 6 7 6 6 7 7
20 21 15 17 13 7 25 41 20 33 26 25 25 21 11 16 23 25 22 22 23 17 19 21 20 20 19 18 17 15 14 13 12 11 9 7 5 4 4 4 5 6 7 7 7 7 6 6 7
18 13 19 24 18 8 9 8 7 37 37 9 31 14 17 22 23 24 23 22 21 19 17 20 19 19 18 18 17 15 12 12 11 9 7 5 4 3 4 4 5 6 7 8 7 7 6 6 7
23 14 23 21 19 7 21 2 8 12 15 13 16 9 16 28 26 24 23 20 20 19 17 17 18 18 16 15 15 14 11 10 8 7 6 5 5 5 5 4 4 6 6 7 7 8 7 7 9
23 15 16 22 23 6 4 8 10 20 32 14 5 21 31 31 28 26 23 22 21 17 18 17 16 15 12 12 13 12 10 8 7 5 4 7 4 6 5 6 6 6 6 7 6 7 7 5 5
20 15 22 23 24 8 6 7 12 9 15 16 22 30 35 30 28 27 27 25 22 18 19 18 18 14 14 11 9 11 10 7 4 3 2 7 3 4 5 8 6 8 9 5 9 10 6 10 12
24 19 19 27 32 21 7 9 12 14 11 19 26 32 31 30 27 24 25 22 19 20 20 19 19 20 17 13 5 9 4 3 4 10 11 5 6 5 4 8 8 5 6 8 8 9 7 6 6
21 27 24 32 38 34 16 6 15 44 13 31 24 26 31 29 26 24 23 21 21 21 20 19 17 22 16 13 9 8 13 7 8 5 8 6 4 2 4 2 3 8 4 2 5 5 11 14 5
19 20 24 26 32 34 16 17 20 37 17 36 21 27 27 28 24 24 24 22 21 22 20 20 19 23 17 13 15 11 13 9 11 10 10 11 8 8 9 9 10 7 11 5 6 6 13 10 3
18 19 25 25 30 25 20 19 23 6 7 27 32 27 25 26 24 24 25 23 23 20 22 18 17 19 18 20 14 18 15 15 11 13 17 16 15 16 15 5 5 9 11 9 8 8 11 8 5
21 17 19 20 26 20 20 23 18 30 31 29 26 26 25 25 24 23 21 21 22 20 20 22 16 15 14 18 18 15 15 10 13 20 18 14 17 13 11 10 13 15 10 9 11 11 10 9 9
11 16 16 18 19 22 17 22 18 21 25 26 24 28 28 26 22 21 22 23 22 22 21 19 16 19 20 18 16 12 15 14 12 13 12 13 13 13 11 9 15 11 10 13 15 13 12 14 14
16 13 19 20 21 20 19 20 16 22 25 25 25 25 27 27 25 25 24 25 24 25 25 22 16 17 21 18 17 15 16 13 13 9 12 11 12 11 12 15 16 10 11 16 16 16 15 11 13
18 16 12 15 20 21 18 20 18 30 24 26 28 25 25 28 30 29 28 26 25 22 24 24 20 20 22 19 18 18 15 14 12 17 17 12 11 10 11 15 13 15 16 18 16 12 9 9 9
17 20 18 20 14 20 20 20 19 20 24 26 32 31 32 29 27 29 29 27 25 23 23 26 27 27 25 20 18 14 13 14 17 17 14 13 12 11 12 16 13 17 16 15 9 6 1 7 2
20 18 16 13 19 17 13 20 18 21 23 28 31 36 34 31 34 25 27 28 26 27 25 26 21 25 21 18 15 14 15 13 14 15 12 11 11 11 12 16 14 13 12 10 6 6 7 4 2
14 15 16 18 18 19 17 20 16 17 29 31 18 7 10 28 36 36 32 28 26 24 26 21 24 21 19 16 23 22 25 19 14 9 10 9 11 11 11 11 9 9 11 6 6 5 7 2 3
16 18 19 19 17 14 18 15 17 18 19 22 30 41 56 57 36 38 38 32 26 22 21 19 21 20 20 17 22 24 20 11 7 8 11 9 8 7 6 7 7 7 7 5 6 7 10 8 5
17 18 18 18 18 20 20 14 18 16 22 24 29 39 44 42 44 40 33 31 26 21 18 19 17 17 22 21 13 15 13 14 15 13 7 5 4 4 3 5 7 7 5 5 6 8 12 11 8
18 17 17 15 17 16 20 19 17 18 19 19 21 38 39 40 41 41 34 29 27 23 19 17 18 13 15 16 14 12 14 14 14 10 4 4 1 3 4 5 6 7 6 6 7 7 6 10 9
21 15 12 15 15 15 20 20 17 21 21 20 21 20 39 40 44 45 41 33 28 26 22 17 16 15 12 14 13 14 16 16 12 9 9 7 4 2 6 5 5 6 7 6 6 6 6 6 9
21 17 10 8 14 18 24 15 13 14 6 24 24 2 20 36 28 39 33 33 29 24 20 19 16 13 11 12 12 12 14 12 10 6 11 6 12 9 6 6 8 7 8 8 6 6 6 8 8
19 14 21 18 19 16 15 22 21 31 35 22 23 26 10 23 40 46 36 30 26 25 22 19 17 15 14 13 12 14 10 13 16 15 13 10 9 4 8 7 7 7 8 9 5 5 7 8 7
17 18 17 6 8 11 12 11 10 26 28 31 33 20 32 37 42 35 29 26 26 25 24 19 17 17 15 13 12 11 9 9 10 14 10 12 11 11 7 7 7 7 8 11 5 4 6 6 5
18 16 18 2 3 3 8 3 12 17 21 22 34 44 20 21 31 35 31 29 27 24 22 21 19 16 14 14 14 14 12 11 9 10 10 9 9 7 5 5 5 6 6 8 7 5 5 3 4
16 14 11 7 12 9 10 9 9 13 23 26 33 42 37 26 28 31 34 30 25 25 24 21 25 23 23 21 20 18 11 7 13 14 13 11 8 7 5 6 6 5 5 6 7 7 3 3 3

GFSSGP_850_spd_345.txt.gz
Wind_Speed
16 14 10 3 2 5 2 5 6 16 13 18 21 17 11 9 5 6 27 22 23 26 25 23 22 22 22 22 21 21 22 23 23 23 23 22 20 19 17 17 17 15 15 16 16 15 15 16 17
15 13 12 6 2 3 3 1 11 16 24 19 33 26 11 5 21 30 28 22 21 26 26 25 23 23 23 22 22 21 21 22 22 22 21 19 17 16 15 14 14 13 14 13 14 14 13 14 15
15 15 4 4 4 5 4 7 8 25 29 13 2 18 9 13 28 21 24 21 27 27 26 26 25 25 24 23 22 21 21 21 21 20 19 17 15 14 12 11 12 11 12 12 12 12 12 14 15
10 5 6 3 12 5 7 12 18 39 24 20 21 11 16 22 26 28 28 21 27 27 27 26 25 25 25 24 22 20 20 20 19 18 17 14 12 10 10 9 10 10 10 10 10 10 11 12 13
9 6 3 5 13 9 9 5 19 11 21 25 17 12 8 23 26 30 22 19 25 28 27 27 26 26 25 24 22 20 19 18 17 16 14 12 10 8 8 9 9 9 9 9 9 8 8 9 10
6 5 3 8 17 5 4 14 16 9 24 31 21 22 9 33 34 28 24 23 19 26 27 27 26 26 25 23 21 20 18 17 15 13 12 10 8 8 8 8 8 8 9 9 8 7 8 9 10
10 2 7 11 18 7 6 31 18 36 32 17 31 11 23 33 33 25 34 25 19 21 27 26 26 25 24 22 20 18 16 15 14 12 11 9 8 8 7 7 8 9 9 10 10 10 10 11 10
22 3 9 12 17 14 20 18 29 40 27 20 26 9 25 38 35 28 35 30 20 18 25 26 25 24 23 21 18 16 15 14 13 11 10 9 9 8 8 8 8 9 9 9 10 11 9 9 10
21 5 11 13 19 12 11 7 37 48 33 26 26 37 44 42 38 38 32 23 18 18 25 25 24 22 21 19 17 15 14 13 12 10 11 11 8 6 6 9 9 8 8 9 10 8 7 6 6
6 4 10 14 18 13 17 12 25 6 6 7 26 33 49 45 42 41 34 31 25 20 21 22 24 22 20 16 15 13 12 11 10 10 12 9 4 2 4 5 7 7 8 6 8 9 6 3 4
16 11 11 24 30 25 19 7 5 25 5 13 15 45 47 45 41 41 36 35 29 20 23 18 21 19 16 15 12 13 12 11 12 11 13 11 6 2 2 6 6 2 3 5 4 7 1 2 6
8 21 24 28 34 27 13 7 4 7 14 23 14 36 37 41 40 38 39 38 28 28 31 24 24 21 20 13 7 13 13 10 7 2 7 10 10 8 4 5 6 5 7 4 2 5 5 8 11
7 10 28 31 27 28 26 5 7 15 26 44 3 17 31 32 32 34 38 34 26 32 29 29 30 30 23 18 13 11 9 9 8 12 11 16 17 9 11 9 10 10 12 13 14 15 16 12 7
21 17 20 27 27 28 10 6 13 9 33 32 26 22 26 27 30 31 35 30 29 32 32 31 26 33 22 22 19 16 18 19 20 19 17 14 19 17 17 18 17 18 19 19 18 15 14 12 10
23 10 11 10 17 13 22 10 7 33 26 27 33 31 27 29 30 35 35 34 36 33 34 32 29 32 27 27 26 23 24 22 20 21 22 18 22 19 17 21 20 17 17 16 14 13 13 14 12
9 6 6 9 10 18 11 8 14 40 36 25 16 24 32 34 33 35 37 40 37 38 33 28 27 27 32 24 28 27 24 24 24 25 23 20 19 19 19 21 18 17 18 17 15 13 13 15 15
6 7 10 10 11 9 8 9 12 39 33 29 34 42 36 38 35 36 34 34 32 34 35 28 25 26 30 25 26 26 25 22 25 27 23 19 18 17 19 19 16 16 18 17 16 16 14 14 14
8 7 9 11 8 13 13 10 10 41 35 37 40 40 38 37 38 35 34 35 33 34 36 35 28 27 30 25 27 25 26 26 26 23 18 16 14 15 18 17 15 16 17 17 17 18 18 12 8
14 13 13 15 13 5 15 17 12 20 31 32 35 37 38 41 36 35 34 34 37 36 36 38 34 31 33 30 29 27 27 27 25 22 18 15 13 13 16 15 14 15 16 17 15 12 13 10 4
16 16 16 9 10 5 10 8 11 8 22 40 39 33 33 38 28 28 34 37 38 38 38 39 34 31 29 31 27 23 24 25 24 19 16 16 14 13 15 15 15 17 16 13 10 9 11 7 6
8 6 6 8 13 7 7 8 6 5 19 31 35 32 31 38 35 33 33 35 37 37 36 38 33 27 27 24 27 25 25 24 18 16 14 11 12 12 14 14 13 15 12 9 9 10 12 7 6
5 10 10 10 7 9 3 9 8 6 9 15 28 47 50 49 35 42 44 41 39 35 30 33 30 27 26 27 26 26 27 24 18 17 11 11 11 11 10 10 11 11 10 8 9 11 11 10 9
14 26 10 11 8 3 9 3 8 8 9 9 16 39 51 56 46 54 50 47 41 37 31 30 29 25 27 24 25 23 22 19 17 14 8 8 7 8 8 8 9 9 8 8 10 12 12 10 8
10 25 12 6 1 4 4 7 6 8 12 25 32 28 36 57 57 58 47 43 44 36 31 24 25 24 23 19 19 18 18 18 19 12 10 8 6 6 5 6 7 8 6 7 8 11 11 9 10
15 14 6 6 5 3 20 9 5 15 17 18 25 45 28 60 54 51 45 45 37 34 35 28 23 23 22 18 19 18 16 18 14 11 8 5 4 3 5 6 7 6 5 6 7 9 10 12 11
15 6 2 5 6 11 17 6 3 14 27 39 46 52 69 57 44 39 45 46 44 39 33 28 25 21 20 20 20 19 19 15 11 13 13 14 6 3 1 5 5 7 7 7 7 8 10 12 11
8 5 8 14 15 4 7 9 5 23 24 33 39 47 52 26 25 42 49 52 40 39 35 29 25 21 19 18 17 18 16 15 19 14 15 14 11 6 5 5 6 7 9 6 5 6 9 10 13
8 9 7 1 5 4 3 4 5 14 16 18 23 31 43 43 11 30 41 37 39 32 29 25 19 20 20 19 20 19 19 18 18 16 13 11 9 5 4 7 7 9 11 7 6 7 9 6 9
10 7 6 2 2 2 3 2 3 4 8 10 12 23 33 38 20 7 27 39 35 30 24 23 22 22 19 23 19 20 20 20 17 16 13 11 8 5 6 7 7 7 10 9 5 6 6 7 6
11 10 11 4 8 3 4 2 4 3 3 11 14 11 16 24 12 13 25 30 29 30 31 31 29 28 25 24 17 12 12 14 15 16 13 10 10 10 10 9 8 7 9 11 8 5 5 6 5

GFSSGP_850_spd_348.txt.gz
Wind_Speed
7 6 5 5 3 4 3 5 3 6 1 9 15 6 11 12 5 4 20 31 32 29 28 27 26 24 24 24 24 25 25 27 28 27 25 24 22 21 20 19 18 16 16 16 16 16 16 16 16
8 7 4 1 3 2 5 5 7 3 10 15 18 11 11 3 9 18 34 29 31 30 30 29 28 27 27 26 25 26 26 27 26 25 24 22 20 19 18 16 16 15 14 15 15 15 14 15 15
7 8 4 4 4 6 5 5 10 11 19 17 7 17 13 6 14 35 28 34 33 32 31 29 28 28 28 26 26 26 26 26 25 24 21 20 18 17 16 14 13 13 13 13 13 14 15 16 15
5 4 4 2 9 6 6 6 10 10 17 15 9 14 10 10 30 25 34 33 33 33 31 30 29 29 28 26 26 26 26 25 24 22 20 18 16 14 14 13 12 11 11 11 12 13 15 15 13
6 3 1 3 6 3 3 9 10 4 8 9 6 9 8 19 18 30 30 31 33 33 32 31 30 29 28 26 26 25 25 24 22 20 18 16 14 13 12 12 11 10 9 10 10 11 12 12 12
4 2 2 5 5 3 4 19 9 7 10 5 5 20 24 18 25 30 26 30 30 33 33 32 31 29 28 26 25 25 24 23 21 18 16 14 13 12 12 11 10 10 9 9 10 11 11 11 11
6 4 5 6 5 6 6 13 8 3 10 9 15 17 10 32 29 30 26 26 30 31 32 32 31 30 27 25 24 23 23 21 19 17 15 14 13 12 11 11 11 11 11 12 11 11 10 10 9
5 5 4 5 6 6 10 11 9 3 9 23 20 7 21 38 32 29 27 25 26 29 30 31 32 30 28 25 23 21 21 20 18 16 15 14 14 12 13 11 11 11 10 11 11 10 9 8 8
6 2 5 7 3 4 15 7 8 5 10 13 2 31 25 37 39 35 32 29 26 28 28 29 30 29 27 24 22 21 20 19 18 17 17 15 14 14 14 12 11 9 10 11 10 7 6 4 8
6 4 8 8 4 9 12 10 12 6 22 11 25 57 32 42 41 41 39 35 30 30 31 30 29 28 26 25 23 21 20 19 18 17 17 14 13 12 9 10 9 9 10 9 5 2 4 3 4
6 6 7 19 26 25 3 8 11 12 6 13 32 20 18 29 40 40 38 32 28 27 32 31 30 28 26 25 22 21 20 19 19 20 18 13 12 9 7 5 4 5 6 7 4 4 4 4 1
6 15 16 23 28 25 8 9 11 17 12 35 33 29 40 31 40 40 37 31 27 26 31 30 29 28 25 22 21 20 20 19 19 18 19 15 12 11 10 6 10 8 11 11 8 8 6 5 6
7 10 28 34 32 25 3 10 14 20 32 37 38 37 40 34 36 39 35 30 28 26 30 29 29 28 26 20 16 21 20 17 16 16 19 19 16 14 11 12 15 14 14 12 11 9 10 11 9
18 15 17 17 20 13 10 16 14 19 45 54 43 38 49 48 41 44 40 35 31 28 32 29 27 26 23 18 17 21 20 19 19 20 17 18 20 20 17 17 17 16 14 15 16 16 16 14 11
9 7 10 8 6 5 4 8 13 50 35 35 25 31 39 44 40 44 44 40 36 33 31 31 29 26 24 23 20 23 22 24 25 24 22 20 22 22 18 19 20 19 19 19 19 18 17 15 11
7 4 6 6 8 12 6 9 6 46 37 36 35 35 42 43 48 40 40 42 38 38 37 33 36 38 25 27 27 23 27 26 28 28 25 21 19 23 23 22 23 23 21 18 16 15 16 16 14
5 4 7 11 3 5 6 9 11 41 35 34 36 37 41 45 46 44 41 43 42 37 41 42 39 43 32 31 29 28 29 29 28 27 25 22 21 21 24 24 22 21 18 15 14 14 15 15 14
6 4 5 7 8 0 3 8 18 37 33 36 36 34 36 36 46 46 43 45 44 40 44 45 41 43 40 34 31 30 29 28 27 26 24 22 23 22 22 22 21 19 16 15 14 15 16 14 12
6 5 8 13 14 2 9 6 11 31 28 22 25 31 27 31 35 37 41 46 44 44 44 46 44 41 40 41 37 35 33 32 32 29 26 20 19 20 19 18 18 18 16 15 15 15 15 11 7
13 13 13 11 13 7 7 8 2 19 29 37 32 25 32 33 35 36 40 43 45 43 45 44 41 38 37 40 37 37 37 33 29 26 23 19 17 18 17 16 16 16 15 16 15 14 14 11 10
5 6 8 13 9 2 3 9 7 5 8 25 23 38 38 47 42 55 55 56 54 51 51 48 43 39 38 38 36 33 33 32 29 25 20 17 16 17 19 17 16 15 14 14 12 12 13 11 12
6 10 16 15 6 5 5 4 13 15 22 22 30 21 20 64 54 68 67 64 60 53 50 48 42 39 39 37 36 37 36 33 28 23 19 14 13 14 17 16 15 14 12 11 10 10 12 12 12
5 10 10 6 6 5 10 4 7 16 16 21 24 26 28 31 32 50 68 64 57 54 53 46 40 35 34 34 32 33 32 31 28 23 17 13 12 13 13 13 12 11 9 9 9 10 10 11 11
11 12 6 4 3 4 1 2 5 6 6 11 19 30 38 38 26 34 31 36 48 49 48 44 40 34 32 33 33 35 34 32 26 19 15 11 10 9 9 9 9 9 7 8 10 11 10 11 11
14 8 5 7 7 3 11 6 3 0 4 5 13 26 37 44 27 38 31 38 43 48 43 40 37 35 37 33 31 29 28 24 20 17 15 11 10 9 8 7 8 8 8 9 9 11 12 10 9
5 4 4 3 3 5 3 2 5 3 10 9 21 26 33 42 25 8 25 33 33 43 42 39 38 36 28 25 22 18 16 19 18 15 12 9 9 6 6 7 7 8 8 10 11 12 14 11 9
7 6 5 3 2 2 4 1 4 17 20 29 28 33 34 31 30 17 10 15 37 42 37 36 39 31 23 21 22 21 22 21 19 14 13 14 10 7 4 5 8 10 10 10 10 12 12 13 11
7 7 6 4 3 4 3 4 6 15 15 14 19 20 26 24 20 18 14 8 18 29 35 21 19 23 22 21 21 21 18 16 17 16 20 17 11 7 4 7 10 12 11 10 11 10 11 9 10
6 5 5 1 1 2 3 2 4 5 9 11 14 16 13 11 18 15 13 20 24 15 22 26 21 18 14 14 16 17 17 16 16 19 19 15 9 4 4 8 11 11 10 11 11 11 9 9 9
4 0 3 4 6 3 2 3 6 5 7 12 14 16 4 9 16 22 23 21 20 18 21 10 8 9 11 13 15 14 15 14 15 16 16 14 11 9 9 11 12 13 12 10 10 11 11 9 8